GW3137 Weather Reports


time (UTC)temp
F
wind
direction
speed
knots
gust
knots
rain 1hr
in
rain 24hr
in
rain mn
in
humidity
%
barometer
mb
20260505223704 63 170 1.7 5.2 0.00 0.00 0.00 71 1015.8
20260505223204 63 200 1.7 7.0 0.00 0.00 0.00 71 1015.9
20260505220704 63 149 1.7 6.1 0.00 0.00 0.00 71 1016.1
20260505220203 63 213 0.9 6.1 0.00 0.00 0.00 73 1016.1
20260505213704 62 174 1.7 4.3 0.00 0.00 0.00 73 1016.3
20260505213205 62 274 1.7 6.1 0.00 0.00 0.00 73 1016.2
20260505210703 61 257 0.9 2.6 0.00 0.00 0.00 74 1016.2
20260505210204 61 132 2.6 7.8 0.00 0.00 0.00 74 1016.2
20260505203705 61 159 1.7 5.2 0.00 0.00 0.00 75 1016.4
20260505203204 61 263 0.9 8.7 0.00 0.00 0.00 75 1016.3
20260505200704 60 239 2.6 6.1 0.00 0.00 0.00 77 1016.3
20260505200204 60 227 1.7 6.1 0.00 0.00 0.00 77 1016.3
20260505193704 60 242 1.7 4.3 0.00 0.00 0.00 78 1016.3
20260505193204 59 244 3.5 10.4 0.00 0.00 0.00 78 1016.3
20260505190704 59 207 1.7 4.3 0.00 0.00 0.00 78 1016.3
20260505183704 59 266 1.7 4.3 0.00 0.00 0.00 79 1016.2
20260505183204 59 196 1.7 5.2 0.00 0.00 0.00 79 1016.2
20260505180204 58 239 0.9 6.1 0.00 0.00 0.00 80 1016.1
20260505173705 58 217 1.7 2.6 0.00 0.00 0.00 80 1016.1
20260505173204 58 245 1.7 5.2 0.00 0.00 0.00 80 1016.0
20260505170704 58 182 2.6 7.0 0.00 0.00 0.00 80 1015.9
20260505170204 58 125 2.6 6.1 0.00 0.00 0.00 79 1015.9
20260505163704 58 198 1.7 5.2 0.00 0.00 0.00 81 1015.8
20260505163204 58 148 1.7 6.1 0.00 0.00 0.00 81 1015.8
20260505160203 57 103 1.7 8.7 0.00 0.00 0.00 81 1015.5
20260505153204 57 157 1.7 7.0 0.00 0.00 0.00 82 1015.6
20260505150203 57 179 0.9 5.2 0.00 0.00 0.00 82 1015.4
20260505130204 57 162 1.7 7.0 0.00 0.00 0.00 83 1014.2
20260505123703 57 175 2.6 7.0 0.00 0.00 0.00 83 1014.0
20260505120704 56 187 2.6 6.1 0.00 0.00 0.00 83 1013.9
20260505120204 56 158 2.6 7.8 0.00 0.00 0.00 83 1013.9
20260505113704 56 163 3.5 7.8 0.00 0.00 0.00 83 1013.9
20260505113204 56 161 1.7 7.8 0.00 0.00 0.00 83 1013.8
20260505110704 56 212 1.7 7.0 0.00 0.00 0.00 84 1013.7
20260505110203 56 163 3.5 6.1 0.00 0.00 0.00 84 1013.7
20260505100703 56 202 2.6 6.1 0.00 0.00 0.00 84 1013.3
20260505100204 56 193 1.7 7.8 0.00 0.00 0.00 84 1013.3
20260505093704 57 225 0.9 4.3 0.00 0.00 0.00 84 1013.1
20260505090704 56 167 1.7 2.6 0.00 0.00 0.00 84 1012.9
20260505090204 56 182 1.7 7.0 0.00 0.00 0.00 84 1012.9
20260505083703 56 175 1.7 2.6 0.00 0.00 0.00 84 1012.8
20260505083204 56 174 1.7 7.8 0.00 0.00 0.00 84 1012.8
20260505080704 57 155 0.9 2.6 0.00 0.00 0.00 83 1012.7
20260505080203 57 242 1.7 7.0 0.00 0.00 0.00 83 1012.7
20260505073704 57 172 1.7 6.1 0.00 0.00 0.00 82 1012.5
20260505073204 57 140 0.9 4.3 0.00 0.00 0.00 82 1012.4
20260505070204 58 163 0.9 6.1 0.00 0.00 0.00 82 1012.1
20260505063704 58 201 1.7 4.3 0.00 0.00 0.00 81 1011.8
20260505063203 58 161 1.7 8.7 0.00 0.00 0.00 80 1011.9
20260505060704 58 219 1.7 4.3 0.00 0.00 0.00 80 1011.6
20260505060204 58 191 1.7 7.8 0.00 0.00 0.00 80 1011.6
20260505053704 59 170 4.3 8.7 0.00 0.00 0.00 78 1011.4
20260505053205 60 198 1.7 7.8 0.00 0.00 0.00 78 1011.3
20260505050204 62 186 0.9 7.0 0.00 0.00 0.00 75 1011.1
20260505040204 66 158 2.6 7.8 0.00 0.00 0.00 67 1010.1
20260505033704 68 202 2.6 5.2 0.00 0.00 0.00 63 1009.7
20260505033205 69 208 2.6 8.7 0.00 0.00 0.00 63 1009.6
20260505030704 71 209 3.5 8.7 0.00 0.00 0.00 59 1009.2
20260505030204 72 199 1.7 8.7 0.00 0.00 0.00 58 1009.2
20260505023204 76 245 2.6 7.8 0.00 0.00 0.00 52 1009.0
20260505020204 79 244 2.6 7.8 0.00 0.00 0.00 50 1008.9
20260505013704 80 215 2.6 7.0 0.00 0.00 0.00 48 1008.9
20260505013204 80 220 2.6 10.4 0.00 0.00 0.00 47 1008.9
20260505010204 82 249 1.7 7.0 0.00 0.00 0.00 44 1009.0
20260505003204 83 224 0.9 7.0 0.00 0.00 0.00 40 1009.0
20260505000705 83 245 4.3 8.7 0.00 0.00 0.00 37 1009.2
20260505000204 83 189 1.7 7.8 0.00 0.00 0.00 37 1009.2
20260504233704 81 296 3.5 8.7 0.00 0.00 0.00 32 1009.2
20260504233204 82 253 2.6 10.4 0.00 0.00 0.00 30 1009.2
20260504230704 83 220 1.7 7.0 0.00 0.00 0.00 32 1009.3
20260504230204 84 218 2.6 7.0 0.00 0.00 0.00 31 1009.3